Weather in Oyskhara

Russia / Chechen Republic     43°15′46″N   46°14′59″E
temp.,
°C
wind,
m/s
gust,
m/s
humid.,
%
clouds,
%
prec.,
mm/h
press.,
hPa
HPBL,
m
10 may, mon
mon1000:00+7w91493100 1.4 10211088
03:00+7wsw81389100 2.9 10221067
06:00+8wsw7127987 1.1 1022874
09:00+12w7105678 1.3 10221832
12:00+12w674868 0.1 10211721
15:00+14w4545100 0.1 10201879
18:00+12sw3559100 0.0 1020174
21:00+7ssw337588 0.0 102241
11 may, tue
tue1100:00+7sw227276 0.0 102113
03:00+7ssw217270 0.0 102117
06:00+8e11712 0.0 102072
09:00+13ene455970 0.0 10181314
12:00+17ene764436 0.0 10151769
15:00+17e8850100 0.0 10141130
18:00+13ene610650 0.0 1015475
21:00+8ene13850 0.0 101754
12 may, wed
wed1200:00+7sw11902 0.0 101711
03:00+7ssw11910 0.0 101710
06:00+9sw11820 0.0 101780
09:00+15nne22641 0.0 1016735
12:00+18ne335612 0.0 10161162
15:00+20ene33526 0.0 10151205
18:00+16e36680 0.0 1016216
21:00+12se22805 0.0 101625
13 may, thu
thu1300:00+11sse11840 0.0 101612
03:00+11sse11860 0.0 101510
06:00+12ene11800 0.0 101668
09:00+18ne33640 0.0 1015523
12:00+22ene44560 0.0 1014807
15:00+23ene55550 0.0 1013883
18:00+19ene35742 0.0 1014222
21:00+13sse01901 0.0 101412
14 may, fri
fri1400:00+13ssw11910 0.0 101412
03:00+13ese11915 0.0 101311
06:00+16s01814 0.0 101345
09:00+21ne22660 0.0 1013405
12:00+26ene33510 0.0 1012648
15:00+29ne44450 0.0 1011783
18:00+23n11692 0.0 101132
21:00+19s11812 0.0 101215